Voltar ao catálogo

QIANFAN-75

AtivoComunicaçõesPO
NORAD 63161·PAYLOAD·🇨🇳 China

Lançado Mar 11, 2025 de Wenchang Space Launch Site

Loading…

Próximas Passagens (próximas 24 horas)

TLE

AtualizadoSource: Space-Track

Época: Sep 14, 2026, 12:50 UTC

1 63161U 25046C   26257.53517928  .00000090  00000-0  11999-3 0  9997
2 63161  88.9653 291.5168 0017683  55.2121 305.0691 13.51030301 84587

Acompanhe QIANFAN-75 em tempo real com AllMySat

Download on the App Store